Starlink 30459

operational
NORAD ID: 57927 Int'l Des: 2023-147 Owner: SPXS Country: US Constellation: starlink
LEOCIRCULAR

Über Starlink 30459

Beschreibung wird geladen...

Live-Position

3D-Globus wird geladen...

Nächste Überflüge

Höhenverlauf

Altitude vs Time

uPlot chart will show altitude changes over time

Zweizeiliger Elementsatz

1 57927U 23147Q 25260.42236261 .00010487 00000-0 35287-3 0 9996
2 57927 43.0011 59.6840 0004499 303.5962 56.4461 15.30855747112024
Epoch: 17. Sept. 2025 • Age: 35 hours

Aktueller Status

Höhe 476.6 km
Geschwindigkeit 7.63 km/s
Subsatellitenpunkt 38.75°N, 159.18°E
Startdatum 24. Sept. 2023
Alter 1.9 years
Typ internet

Technische Details

Klassifizierung Payload
Masse 730.00 kg
Trockenmasse 700.00 kg
Gesamtmasse 730.00 kg
Länge 0.30 m
Durchmesser 4.10 m
Spannweite 29.00 m
Form Box + pan
Hersteller SPXS
Bus-Typ Starlink V2M
Phasenstatus In Orbit
Besitzer/Staat SPXS/US

Große Konstellationen

Loading constellations...